Date,TemperatureHighF,TemperatureAvgF,TemperatureLowF,DewpointHighF,DewpointAvgF,DewpointLowF,HumidityHigh,HumidityAvg,HumidityLow,PressureMaxIn,PressureMinIn,WindSpeedMaxMPH,WindSpeedAvgMPH,GustSpeedMaxMPH,PrecipitationSumIn
2013-3-1,38.7,33.3,28.3,31.0,26.8,23.0,82,77,69,23.61,23.57,4,2,4,0.00
2013-3-2,44.3,31.4,24.3,28.6,24.1,20.6,86,75,53,23.60,23.42,4,1,4,0.00
2013-3-5,42.7,27.4,11.3,23.0,13.9,6.2,80,58,37,23.35,23.21,5,2,5,0.00
2013-3-8,38.2,36.2,27.5,30.9,29.0,18.7,77,75,69,23.18,23.00,5,2,5,0.00
2013-3-9,38.0,27.9,21.1,30.4,21.8,16.1,86,78,64,23.36,23.00,6,2,6,0.00
2013-3-10,38.5,28.6,19.6,24.5,19.0,14.9,84,68,51,23.45,23.35,6,2,6,0.00
2013-3-11,40.9,36.6,28.4,27.5,22.9,17.7,70,58,47,23.43,23.32,14,2,14,0.00
2013-3-12,44.3,39.2,33.1,31.6,29.4,27.2,83,68,56,23.45,23.36,7,2,7,0.00
2013-3-13,52.4,40.4,30.6,32.1,27.6,24.6,82,62,40,23.54,23.45,6,2,6,0.00
2013-3-14,59.4,45.7,35.5,28.5,24.9,21.5,60,46,25,23.50,23.40,7,2,7,0.00
2013-3-15,54.2,47.0,40.5,29.7,24.0,18.5,55,41,27,23.40,23.25,7,2,7,0.00
2013-3-16,45.4,40.1,33.8,27.4,21.5,14.8,57,47,37,23.25,23.06,10,2,10,0.00
2013-3-17,37.4,31.3,24.8,28.5,21.4,12.3,85,67,50,23.17,23.01,11,2,11,0.00
2013-3-18,37.4,30.7,24.7,18.2,16.3,12.2,75,56,45,23.27,23.17,10,2,10,0.00
2013-3-19,45.2,32.6,23.8,16.7,7.3,-0.6,58,36,20,23.37,23.26,5,1,5,0.00
2013-3-20,37.4,33.8,29.2,34.5,23.5,6.3,90,69,36,23.33,23.05,5,1,5,0.00
2013-3-21,39.2,26.6,18.0,33.0,22.1,12.7,92,83,68,23.16,22.96,12,2,12,0.00
2013-3-22,22.1,19.4,16.2,17.6,13.8,9.5,85,79,70,23.14,23.03,8,1,8,0.00
2013-3-23,25.7,17.5,11.9,18.1,11.8,6.7,86,78,66,23.28,23.11,7,1,7,0.00
2013-3-24,27.0,16.2,9.0,17.6,9.7,4.3,82,76,59,23.28,23.25,4,1,4,0.00
2013-3-25,39.6,24.1,9.5,23.6,14.6,4.4,82,68,51,23.29,23.23,4,1,4,0.00
2013-3-26,46.8,35.4,27.7,26.5,22.8,20.8,79,62,37,23.23,23.13,9,1,9,0.00
2013-3-27,53.3,40.5,28.3,28.8,25.4,20.8,82,57,36,23.25,23.19,5,1,5,0.00
2013-3-28,53.3,42.1,32.8,29.0,25.1,21.2,66,52,32,23.31,23.24,8,1,8,0.00
2013-3-29,53.8,43.6,36.0,32.7,28.9,26.3,73,57,39,23.40,23.30,9,2,9,0.00
2013-3-30,54.5,42.8,34.4,32.4,27.8,24.9,72,56,34,23.40,23.35,8,2,8,0.00
2013-3-31,57.2,43.2,30.6,27.7,23.5,14.9,73,49,22,23.37,23.21,6,2,6,0.00